Location: Co�smes
(47.8832°N, 1.4407°W)
Time: 01:36:41
(UTC+00:00)

Daily predictions for brighter satellites

Satellite Brightness Start Highest point End
(mag) Time Altitude Azimuth Time Altitude Azimuth Time Altitude Azimuth
USA 215 4.4 03:21:31 10° E 03:25:43 37° ENE 03:25:43 37° ENE
Cosmos 1943 Rocket 3.1 04:06:38 44° E 04:06:38 44° E 04:11:42 10° NE
CZ-2C R/B 4.4 04:05:13 10° ESE 04:09:49 28° ENE 04:13:24 14° NNE
CENTAUR R/B 2.8 04:16:08 62° SE 04:16:17 62° ESE 04:23:12 10° NE
Cosmos 2297 4.2 04:21:06 58° ESE 04:21:11 58° ESE 04:26:48 10° NE
NOSS 3-2 (A) 3.4 04:27:50 72° NE 04:27:50 72° NE 04:33:43 10° NE
Cosmos 2278 Rocket 4.0 04:33:50 19° N 04:33:50 19° N 04:35:37 10° NNE
NOSS 3-2 (C) 3.7 04:33:35 48° S 04:34:50 59° ESE 04:41:07 10° NE
Meteor 2-3 Rocket 3.9 04:36:42 10° S 04:42:19 72° E 04:48:03 10° NNE
Cosmos 968 Rocket 4.0 04:42:38 26° S 04:45:25 57° ESE 04:50:27 10° NNE
Cosmos 921 Rocket 3.5 04:50:35 61° E 04:50:35 61° E 04:54:47 10° SSE
DNEPR-1 R/B 4.5 04:53:15 44° NNE 04:54:08 49° NE 04:59:23 10° ESE
Meteor 1-26 Rocket 4.2 04:53:50 34° NNW 04:56:38 88° W 05:02:26 10° S
Cosmos 1812 3.6 04:56:57 47° ENE 04:57:00 47° ENE 05:00:43 10° SSE
USA 238 DEB 3.5 05:00:10 40° SW 05:02:48 87° NW 05:09:45 10° NE
USA 238 3.5 05:00:14 39° SW 05:02:55 87° NW 05:09:51 10° NE
Cosmos 1151 Rocket 3.7 05:01:35 26° N 05:03:52 54° ENE 05:08:09 10° SSE
Cosmos 2344 3.5 05:03:34 46° W 05:05:42 62° NW 05:13:41 10° NE
Cosmos 1816 Rocket 4.5 05:07:03 28° SW 05:10:18 56° WNW 05:16:31 10° N
USA 215 3.2 05:03:51 10° ESE 05:10:24 90° S 05:13:03 40° NW
Kosmos-917 4.1 05:12:30 55° NNE 05:12:30 55° NNE 05:16:26 10° NE
Cosmos 1782 4.3 05:15:55 25° S 05:15:55 25° S 05:17:40 10° S
Meteor 1-31 Rocket 3.5 05:10:22 10° NNE 05:14:12 54° E 05:18:01 10° S
Cosmos 2279 Rocket 4.3 05:08:16 10° N 05:14:28 68° ENE 05:20:37 10° SSE
Cosmos 1328 Rocket 4.3 05:12:41 13° N 05:16:32 52° ENE 05:20:48 10° SSE
SJ-12 3.8 05:15:29 10° NNE 05:19:39 87° ESE 05:23:48 10° SSW
FALCON 9 DEB 3.6 05:21:07 55° NE 05:21:07 55° NE 05:23:51 10° ENE
Cosmos 2369 Rocket 2.3 05:15:13 10° SSW 05:20:47 76° ESE 05:26:24 10° NNE
Cosmos 1862 3.9 05:19:01 10° S 05:22:52 56° E 05:26:46 10° NNE
COSMO-SKYMED 1 2.4 05:20:02 10° S 05:24:22 76° WSW 05:25:48 42° NNW
H-2A R/B 2.5 05:23:55 10° N 05:27:37 75° WNW 05:31:22 10° SSW
Cosmos 1634 Rocket 3.9 05:23:20 10° NNW 05:29:33 64° W 05:35:41 10° S
Cosmos 1867 4.5 05:30:57 29° WSW 05:30:57 29° WSW 05:35:09 10° S
Cosmos 836 Rocket 4.4 05:27:51 28° NNW 05:30:43 79° WSW 05:35:56 10° SSE
Tsikada Rocket 4.2 05:32:14 10° SW 05:38:08 45° WNW 05:44:10 10° N
CZ-4B R/B 4.2 05:38:20 10° ESE 05:40:32 17° ENE 05:42:45 10° NNE
MOS 1-B Rocket 4.2 05:34:42 10° S 05:40:44 46° W 05:44:44 19° NNW
Cosmos 1656 Rocket 3.6 05:39:02 10° SSW 05:44:27 83° ESE 05:49:55 10° NNE
Gblst 52 Del rocket 4.5 05:41:33 30° W 05:44:45 71° NNW 05:51:43 10° ENE
SAR-Lupe-3 4.5 05:41:14 10° N 05:44:48 61° WNW 05:48:20 10° SSW
Cosmos 1503 Rocket 4.4 05:39:47 10° S 05:45:00 67° ESE 05:50:19 10° NNE
CZ-4C R/B 2.5 05:42:11 10° S 05:45:20 75° WSW 05:46:01 50° NNW
DMSP B5D2-2 4.3 05:40:39 10° SSE 05:45:50 71° ENE 05:51:02 10° N
Cosmos 2227 Rocket 4.5 05:46:04 10° N 05:49:28 16° NE 05:52:52 10° ENE
CZ-2C R/B 2.8 05:44:33 10° S 05:49:52 49° W 05:54:54 11° NNW
Cosmos 1943 Rocket 2.7 05:48:15 28° W 05:50:12 36° NW 05:55:24 10° NNE
Cosmos 1486 Rocket 3.9 05:47:22 10° SSW 05:52:39 67° WNW 05:57:56 10° NNE
SL-8 R/B 3.8 05:54:21 29° W 05:56:44 68° SSW 06:01:29 10° ESE
Cosmos 1515 Rocket 3.7 05:52:30 10° N 05:56:54 75° E 06:01:14 10° SSE
FALCON 9 DEB 3.5 05:56:51 34° NNW 05:56:56 34° NNW 05:59:38 10° NE
Meteor 2-15 4.4 05:52:04 10° N 05:58:11 87° W 06:04:14 10° S
Cosmos 2180 Rocket 4.4 05:53:37 10° NNW 05:59:48 75° W 06:05:55 10° S
Meteor 1-27 Rocket 4.1 05:54:14 10° N 05:59:51 68° ENE 06:05:33 10° SSE
Iridium 2 4.2 05:58:37 10° SW 06:02:05 34° W 06:05:36 10° NNW
FALCON 9 DEB 3.7 06:03:16 28° NNW 06:03:36 29° N 06:06:11 10° ENE
Cosmos 773 Rocket 4.1 05:58:53 10° NNW 06:04:10 82° ENE 06:09:21 10° SSE
FALCON 9 DEB 3.8 06:05:15 27° NNW 06:05:41 28° N 06:08:14 10° ENE
SJ 16-02 2.9 06:02:20 10° S 06:06:24 39° ESE 06:10:30 10° NE
CENTAUR R/B 3.2 06:03:21 20° W 06:07:23 40° NNW 06:14:23 10° NE
NOAA 11 4.1 06:03:04 10° NNE 06:08:35 82° WNW 06:14:03 10° SSW
Alouette 2 Rocket 4.2 06:06:22 10° N 06:10:16 47° ENE 06:13:42 10° SSE
Meteor 2-19 Rocket 4.5 06:06:56 10° S 06:12:59 87° E 06:19:05 10° N
NOAA 12 4.3 06:08:27 10° NNE 06:13:45 74° ESE 06:18:58 10° S
Envisat 3.5 06:10:04 10° N 06:14:39 35° WNW 06:19:13 10° SW
Cosmos 1340 Rocket 3.8 06:10:56 10° S 06:14:45 50° E 06:18:38 10° NNE
Cosmos 2278 Rocket 4.1 06:15:42 10° NNW 06:16:18 11° NNW 06:17:26 10° NNW
SL-27 R/B 2.4 06:14:04 12° NNW 06:17:26 89° WNW 06:21:00 10° SSE
Cosmos 1500 Rocket 4.1 06:13:48 10° S 06:18:11 64° E 06:22:38 10° NNE
NOSS 3-2 (A) 4.4 06:15:14 18° WNW 06:18:52 31° NNW 06:24:54 10° NE
Cosmos 1939 Rocket 3.1 06:16:19 10° NNE 06:20:17 71° ESE 06:24:09 10° S
FALCON 9 DEB 3.8 06:21:30 22° NW 06:22:40 30° N 06:25:18 10° ENE
Cosmos 2098 Rocket 3.9 06:19:30 10° SW 06:23:00 28° WNW 06:27:18 10° N
NOSS 3-2 (C) 4.0 06:21:05 12° W 06:26:04 38° NNW 06:32:23 10° NE
Cosmos 968 Rocket 4.5 06:23:25 10° WSW 06:27:35 24° NW 06:31:45 10° N
Okean O Rocket 4.5 06:27:09 10° NE 06:30:33 21° E 06:33:54 10° SE
Okean 3 Rocket 4.3 06:27:30 10° SW 06:31:34 32° WNW 06:35:40 10° N
Cosmos 1812 4.4 06:32:03 14° W 06:32:19 14° W 06:34:27 10° WSW
H-2A R/B 2.1 06:28:18 10° S 06:32:30 61° WSW 06:36:51 10° NNW
ATLAS 3B R/B 3.6 06:28:04 10° SSW 06:34:20 52° ESE 06:40:56 10° NE
Cosmos 1174 4.4 06:34:55 10° SSW 06:37:46 44° ESE 06:40:45 10° NE
ATLAS 5 CENTAUR R/B 2.3 06:34:29 10° SSW 06:38:11 51° SE 06:42:21 10° NE
ADEOS 3.9 06:33:53 10° N 06:38:48 42° WNW 06:43:40 10° SW
Cosmos 158 Rocket 4.2 06:34:24 10° NNW 06:39:31 75° ENE 06:44:45 10° SSE
Cosmos 1354 Rocket 4.2 06:40:07 10° SW 06:45:14 50° WNW 06:50:24 10° NNE
Cosmos 1515 3.6 06:41:36 10° NNW 06:45:24 80° W 06:49:11 10° S
Meteor PRIRODA 4.2 06:42:53 10° N 06:46:12 34° WNW 06:49:29 10° SW
Okean 1 4.0 06:42:26 10° N 06:46:22 58° ENE 06:50:15 10° SSE
CZ-2C R/B 3.1 06:42:33 10° N 06:47:11 48° WNW 06:51:59 10° SW
Meteor 1-31 Rocket 4.4 06:45:49 10° NNW 06:48:10 16° WNW 06:50:31 10° W
NOSS 2 (A) 4.1 06:50:12 10° NW 06:53:02 80° SW 06:55:29 10° SE
USA 215 4.2 06:48:19 10° S 06:53:56 31° SW 06:59:35 10° WNW
USA 238 DEB 4.5 06:48:49 10° W 06:54:41 31° NNW 07:00:53 10° NE
USA 238 4.5 06:48:55 10° W 06:54:47 31° NNW 07:00:59 10° NE
FALCON 9 DEB 4.0 06:54:23 10° WNW 06:57:32 34° N 07:00:41 10° ENE
Cosmos 2297 Rocket 3.0 06:53:52 10° NNW 06:59:22 49° NE 07:04:51 10° SE
SMAP 3.1 06:55:51 10° N 07:00:26 59° WNW 07:05:00 10° SSW
FengYun 1-2 T 4.3 06:58:16 10° N 07:03:39 56° WNW 07:08:59 10° SW
Cosmos 2369 Rocket 3.3 07:01:00 10° W 07:05:25 23° NW 07:09:53 10° N
